| time (UTC) | temp F | wind direction | speed MPH | gust MPH | rain 1hr in | rain 24hr in | rain mn in | humidity % | barometer mb |
| 20260504035125 | 51 | 341 | 12.0 | 32.0 | 0.00 | 0.00 | 0.00 | 38 | 1014.0 |
| 20260504034144 | 51 | 316 | 11.0 | 28.0 | 0.00 | 0.00 | 0.00 | 37 | 1014.0 |
| 20260504033123 | 52 | 339 | 8.0 | 28.0 | 0.00 | 0.00 | 0.00 | 36 | 1013.9 |
| 20260504032123 | 52 | 304 | 10.0 | 29.0 | 0.00 | 0.00 | 0.00 | 35 | 1013.8 |
| 20260504031123 | 53 | 330 | 9.0 | 27.0 | 0.00 | 0.00 | 0.00 | 35 | 1013.5 |
| 20260504030123 | 53 | 323 | 13.0 | 29.0 | 0.00 | 0.00 | 0.00 | 35 | 1013.4 |
| 20260504025123 | 53 | 328 | 17.0 | 37.0 | 0.00 | 0.00 | 0.00 | 34 | 1013.3 |
| 20260504024125 | 54 | 330 | 11.0 | 37.0 | 0.00 | 0.00 | 0.00 | 34 | 1013.3 |
| 20260504023144 | 54 | 341 | 14.0 | 41.0 | 0.00 | 0.00 | 0.00 | 36 | 1013.0 |
| 20260504022123 | 54 | 315 | 4.0 | 18.0 | 0.00 | 0.00 | 0.00 | 39 | 1013.2 |
| 20260504021123 | 55 | 347 | 7.0 | 28.0 | 0.00 | 0.00 | 0.00 | 40 | 1013.0 |
| 20260504020123 | 55 | 352 | 10.0 | 27.0 | 0.00 | 0.00 | 0.00 | 40 | 1013.2 |
| 20260504015124 | 55 | 355 | 14.0 | 34.0 | 0.00 | 0.00 | 0.00 | 40 | 1013.0 |
| 20260504014123 | 55 | 336 | 9.0 | 28.0 | 0.00 | 0.00 | 0.00 | 38 | 1013.0 |
| 20260504013146 | 56 | 356 | 12.0 | 28.0 | 0.00 | 0.00 | 0.00 | 37 | 1013.0 |
| 20260504012123 | 57 | 350 | 10.0 | 34.0 | 0.00 | 0.00 | 0.00 | 36 | 1012.9 |
| 20260504011123 | 57 | 12 | 14.0 | 39.0 | 0.00 | 0.00 | 0.00 | 35 | 1012.7 |
| 20260504010144 | 57 | 317 | 8.0 | 32.0 | 0.00 | 0.00 | 0.00 | 36 | 1012.4 |
| 20260504005123 | 57 | 314 | 16.0 | 40.0 | 0.00 | 0.00 | 0.00 | 36 | 1012.4 |
| 20260504004124 | 57 | 318 | 16.0 | 35.0 | 0.00 | 0.00 | 0.00 | 38 | 1012.4 |
| 20260504003123 | 57 | 307 | 13.0 | 31.0 | 0.00 | 0.00 | 0.00 | 39 | 1012.4 |
| 20260504002123 | 58 | 316 | 10.0 | 27.0 | 0.00 | 0.00 | 0.00 | 39 | 1012.2 |
| 20260504001124 | 58 | 348 | 12.0 | 37.0 | 0.00 | 0.00 | 0.00 | 39 | 1012.2 |
| 20260504000123 | 57 | 316 | 10.0 | 28.0 | 0.00 | 0.00 | 0.00 | 39 | 1012.2 |
| 20260503235124 | 57 | 335 | 12.0 | 32.0 | 0.00 | 0.00 | 0.00 | 39 | 1012.2 |
| 20260503234123 | 58 | 299 | 9.0 | 27.0 | 0.00 | 0.00 | 0.00 | 38 | 1012.2 |
| 20260503233144 | 58 | 350 | 14.0 | 32.0 | 0.00 | 0.00 | 0.00 | 38 | 1011.9 |
| 20260503232122 | 58 | 333 | 16.0 | 36.0 | 0.00 | 0.00 | 0.00 | 38 | 1011.8 |
| 20260503231122 | 59 | 345 | 13.0 | 34.0 | 0.00 | 0.00 | 0.00 | 37 | 1011.9 |
| 20260503230145 | 59 | 342 | 16.0 | 40.0 | 0.00 | 0.00 | 0.00 | 36 | 1011.8 |
| 20260503225123 | 59 | 343 | 15.0 | 42.0 | 0.00 | 0.00 | 0.00 | 36 | 1011.5 |
| 20260503224123 | 60 | 313 | 16.0 | 38.0 | 0.00 | 0.00 | 0.00 | 35 | 1011.5 |
| 20260503223122 | 60 | 309 | 20.0 | 43.0 | 0.00 | 0.00 | 0.00 | 33 | 1011.5 |
| 20260503222123 | 60 | 299 | 16.0 | 36.0 | 0.00 | 0.00 | 0.00 | 34 | 1011.4 |
| 20260503221123 | 60 | 303 | 18.0 | 43.0 | 0.00 | 0.00 | 0.00 | 34 | 1011.5 |
| 20260503220122 | 60 | 285 | 19.0 | 42.0 | 0.00 | 0.00 | 0.00 | 34 | 1011.2 |
| 20260503215125 | 60 | 290 | 19.0 | 42.0 | 0.00 | 0.00 | 0.00 | 34 | 1011.3 |
| 20260503214122 | 60 | 289 | 19.0 | 47.0 | 0.00 | 0.00 | 0.00 | 34 | 1011.3 |
| 20260503213123 | 60 | 296 | 21.0 | 46.0 | 0.00 | 0.00 | 0.00 | 34 | 1011.3 |
| 20260503212123 | 60 | 302 | 20.0 | 51.0 | 0.00 | 0.00 | 0.00 | 34 | 1011.3 |
| 20260503211123 | 61 | 300 | 15.0 | 37.0 | 0.00 | 0.00 | 0.00 | 34 | 1011.3 |
| 20260503210122 | 60 | 333 | 14.0 | 38.0 | 0.00 | 0.00 | 0.00 | 34 | 1011.3 |
| 20260503205123 | 60 | 317 | 17.0 | 40.0 | 0.00 | 0.00 | 0.00 | 34 | 1011.3 |
| 20260503204123 | 61 | 329 | 14.0 | 34.0 | 0.00 | 0.00 | 0.00 | 34 | 1011.3 |
| 20260503203123 | 60 | 311 | 15.0 | 37.0 | 0.00 | 0.00 | 0.00 | 34 | 1011.3 |
| 20260503202124 | 61 | 315 | 15.0 | 37.0 | 0.00 | 0.00 | 0.00 | 34 | 1011.3 |
| 20260503201125 | 60 | 338 | 18.0 | 42.0 | 0.00 | 0.00 | 0.00 | 33 | 1011.2 |
| 20260503200123 | 61 | 310 | 14.0 | 38.0 | 0.00 | 0.00 | 0.00 | 33 | 1011.0 |
| 20260503195125 | 61 | 328 | 19.0 | 42.0 | 0.00 | 0.00 | 0.00 | 33 | 1010.9 |
| 20260503194124 | 62 | 349 | 13.0 | 37.0 | 0.00 | 0.00 | 0.00 | 32 | 1010.9 |
| 20260503193122 | 62 | 316 | 18.0 | 39.0 | 0.00 | 0.00 | 0.00 | 32 | 1010.8 |
| 20260503192122 | 62 | 325 | 17.0 | 39.0 | 0.00 | 0.00 | 0.00 | 32 | 1010.9 |
| 20260503191122 | 63 | 311 | 18.0 | 42.0 | 0.00 | 0.00 | 0.00 | 31 | 1011.0 |
| 20260503190125 | 63 | 303 | 19.0 | 46.0 | 0.00 | 0.00 | 0.00 | 32 | 1010.9 |
| 20260503185123 | 63 | 303 | 19.0 | 42.0 | 0.00 | 0.00 | 0.00 | 32 | 1010.8 |
| 20260503184124 | 63 | 309 | 18.0 | 34.0 | 0.00 | 0.00 | 0.00 | 32 | 1010.8 |
| 20260503183122 | 64 | 315 | 16.0 | 37.0 | 0.00 | 0.00 | 0.00 | 32 | 1010.8 |
| 20260503182122 | 65 | 294 | 16.0 | 44.0 | 0.00 | 0.00 | 0.00 | 32 | 1010.9 |
| 20260503181144 | 65 | 292 | 11.0 | 30.0 | 0.00 | 0.00 | 0.00 | 33 | 1010.9 |
| 20260503180122 | 64 | 312 | 13.0 | 28.0 | 0.00 | 0.00 | 0.00 | 34 | 1011.0 |
| 20260503175124 | 63 | 310 | 17.0 | 37.0 | 0.00 | 0.00 | 0.00 | 34 | 1011.0 |
| 20260503174123 | 64 | 301 | 16.0 | 37.0 | 0.00 | 0.00 | 0.00 | 33 | 1011.0 |
| 20260503173122 | 63 | 304 | 17.0 | 42.0 | 0.00 | 0.00 | 0.00 | 32 | 1010.8 |
| 20260503172123 | 64 | 291 | 12.0 | 32.0 | 0.00 | 0.00 | 0.00 | 32 | 1010.9 |
| 20260503171122 | 65 | 305 | 13.0 | 31.0 | 0.00 | 0.00 | 0.00 | 32 | 1010.8 |
| 20260503170124 | 64 | 308 | 15.0 | 33.0 | 0.00 | 0.00 | 0.00 | 33 | 1010.7 |
| 20260503160122 | 61 | 312 | 14.0 | 30.0 | 0.00 | 0.00 | 0.00 | 41 | 1011.0 |
| 20260503150144 | 60 | 298 | 9.0 | 24.0 | 0.00 | 0.00 | 0.00 | 43 | 1010.5 |
| 20260503140123 | 58 | 277 | 14.0 | 30.0 | 0.00 | 0.00 | 0.00 | 44 | 1010.2 |
| 20260503131122 | 55 | 270 | 6.0 | 16.0 | 0.00 | 0.00 | 0.00 | 46 | 1010.0 |
| 20260503130122 | 55 | 268 | 8.0 | 17.0 | 0.00 | 0.00 | 0.00 | 46 | 1010.0 |
| 20260503120122 | 53 | 268 | 8.0 | 20.0 | 0.00 | 0.00 | 0.00 | 47 | 1010.2 |
| 20260503110123 | 52 | 265 | 3.0 | 12.0 | 0.00 | 0.00 | 0.00 | 47 | 1010.0 |
| 20260503100122 | 52 | 247 | 0.0 | 7.0 | 0.00 | 0.00 | 0.00 | 46 | 1010.5 |
| 20260503090122 | 53 | 248 | 0.0 | 0.0 | 0.00 | 0.00 | 0.00 | 44 | 1010.5 |
| 20260503081122 | 57 | 281 | 6.0 | 15.0 | 0.00 | 0.00 | 0.00 | 39 | 1010.9 |
| 20260503080122 | 57 | 272 | 5.0 | 13.0 | 0.00 | 0.00 | 0.00 | 38 | 1010.9 |
| 20260503072122 | 58 | 269 | 6.0 | 13.0 | 0.00 | 0.00 | 0.00 | 37 | 1010.9 |
| 20260503071124 | 58 | 270 | 5.0 | 13.0 | 0.00 | 0.00 | 0.00 | 37 | 1011.0 |
| 20260503070143 | 59 | 268 | 5.0 | 13.0 | 0.00 | 0.00 | 0.00 | 37 | 1010.9 |
| 20260503060122 | 59 | 246 | 1.0 | 8.0 | 0.00 | 0.00 | 0.00 | 39 | 1010.5 |
| 20260503054122 | 60 | 251 | 1.0 | 7.0 | 0.00 | 0.00 | 0.00 | 38 | 1010.5 |
| 20260503053122 | 60 | 230 | 1.0 | 5.0 | 0.00 | 0.00 | 0.00 | 38 | 1010.5 |
| 20260503052122 | 60 | 225 | 0.0 | 2.0 | 0.00 | 0.00 | 0.00 | 38 | 1010.5 |
| 20260503051123 | 60 | 248 | 0.0 | 0.0 | 0.00 | 0.00 | 0.00 | 38 | 1010.5 |
| 20260503050122 | 60 | 248 | 0.0 | 0.0 | 0.00 | 0.00 | 0.00 | 37 | 1010.5 |
| 20260503045122 | 60 | 225 | 0.0 | 0.0 | 0.00 | 0.00 | 0.00 | 37 | 1010.4 |
| 20260503044122 | 60 | 225 | 0.0 | 0.0 | 0.00 | 0.00 | 0.00 | 37 | 1010.4 |
| 20260503043122 | 59 | 248 | 0.0 | 0.0 | 0.00 | 0.00 | 0.00 | 37 | 1010.4 |
| 20260503042124 | 59 | 203 | 0.0 | 0.0 | 0.00 | 0.00 | 0.00 | 36 | 1010.4 |
| 20260503041143 | 60 | 225 | 0.0 | 0.0 | 0.00 | 0.00 | 0.00 | 34 | 1010.3 |
| 20260503040124 | 62 | 203 | 0.0 | 0.0 | 0.00 | 0.00 | 0.00 | 34 | 1010.5 |